GFSCGP_850_rhum_096.txt.gz
RH
24 26 23 17 16 16 16 16 17 14 9 11 14 15 11 12 12 10 10 11 11 11 11 10 12 13 14 14 12 15 31 49 41 60 83 97 100 100 96 77 69 74 71 70
22 30 23 15 11 14 16 19 19 14 12 13 12 12 9 9 9 10 9 9 9 9 9 9 9 12 14 15 15 17 34 50 50 55 76 99 99 100 100 81 70 90 100 86
18 18 16 18 18 15 18 20 18 20 14 13 14 14 13 12 12 11 10 10 11 11 10 11 11 11 12 14 16 18 34 54 58 61 93 99 99 100 99 100 92 98 100 100
23 15 12 14 19 16 21 15 17 22 23 25 14 25 16 13 12 12 12 12 12 20 25 26 21 19 14 16 17 22 29 42 61 67 93 95 95 98 100 100 99 96 80 87
25 20 20 16 17 16 21 16 20 23 24 24 24 26 19 15 13 12 20 22 26 27 30 31 30 27 22 15 18 23 28 39 63 65 81 88 98 95 99 99 100 100 100 96
21 16 17 19 12 17 24 19 23 25 27 41 28 28 24 19 14 19 27 27 31 35 37 36 33 30 24 18 18 29 36 44 59 66 75 93 95 93 86 90 92 91 88 86
37 27 24 17 13 29 28 37 67 70 56 56 26 24 23 18 28 29 28 30 37 42 47 53 38 33 26 22 18 38 39 51 68 69 74 90 86 80 88 84 86 89 94 96
70 49 25 23 27 51 45 39 60 65 56 45 25 30 28 18 24 26 32 34 41 50 56 66 64 52 34 23 40 46 56 58 73 81 88 82 83 86 86 84 85 89 92 97
69 49 26 23 37 50 49 53 45 61 46 69 75 22 32 32 35 28 29 37 48 55 67 82 81 79 43 56 64 68 70 67 70 77 81 84 88 88 89 83 93 95 86 92
65 90 40 31 34 51 48 37 50 50 93 83 81 55 77 60 37 25 25 39 52 61 78 86 91 95 80 60 68 68 63 68 69 75 85 89 89 92 91 98 90 85 90 91
47 76 58 62 61 51 31 54 45 51 50 77 52 60 65 63 34 28 34 41 59 68 84 96 100 99 97 87 76 72 83 86 77 80 89 93 96 94 98 96 84 87 86 90
55 100 82 80 44 44 21 40 56 61 54 39 67 93 76 45 27 37 39 45 61 70 87 99 100 100 100 100 98 81 95 94 88 82 93 94 96 96 96 100 89 89 96 98
91 76 94 80 64 35 26 24 38 61 50 82 73 93 75 54 40 51 55 55 63 71 84 98 97 99 100 100 99 94 97 100 95 92 93 94 94 97 100 96 92 97 98 99
97 88 84 90 67 39 39 32 50 61 66 63 59 78 56 43 46 59 62 60 65 74 84 98 98 99 100 100 98 100 100 100 99 93 97 93 98 96 98 98 94 90 98 99
100 94 98 96 89 58 70 68 84 75 53 48 36 49 48 48 62 65 69 71 77 84 92 98 99 99 100 99 100 100 100 100 98 98 95 98 98 98 89 98 99 94 99 99
98 94 91 93 70 50 78 84 70 35 36 32 33 41 45 49 78 82 88 89 94 98 100 100 100 100 100 99 99 100 100 100 100 100 94 98 96 100 96 97 97 99 100 100
99 100 52 42 22 27 42 29 27 54 58 55 70 61 53 70 90 96 97 97 99 100 100 100 100 100 100 99 99 99 100 100 100 100 99 96 100 100 100 100 99 95 100 96
99 94 40 48 40 73 47 34 48 74 74 67 63 63 62 90 96 100 100 100 100 100 99 100 100 100 100 100 99 98 100 100 100 100 100 100 99 87 92 99 100 96 99 99
60 54 48 48 70 76 65 53 56 68 95 78 76 72 76 98 85 94 98 97 98 98 98 99 100 100 100 100 100 98 99 99 100 100 100 100 100 100 98 98 100 100 100 100
36 40 45 42 42 71 75 60 49 48 92 86 81 84 86 90 94 92 97 96 98 97 98 96 97 98 97 98 98 99 97 98 99 100 100 100 100 100 100 100 100 100 100 100
63 56 62 57 64 77 75 58 47 85 98 97 92 92 89 88 95 97 96 97 98 98 97 98 96 94 97 97 98 98 98 95 98 100 100 99 100 100 100 100 100 100 100 100
72 93 81 72 88 83 78 62 80 98 99 99 99 99 98 98 96 96 96 97 98 99 97 97 96 97 97 96 97 96 96 97 98 100 98 98 98 99 100 100 100 100 100 100
85 77 88 80 91 90 91 98 98 99 97 100 98 99 100 98 96 96 96 97 97 96 96 96 96 96 96 96 95 96 97 96 98 99 98 100 98 96 98 97 99 98 100 98
77 66 82 84 84 80 90 98 96 98 100 99 95 96 97 97 97 97 96 97 96 96 96 96 95 95 96 97 96 96 96 96 98 97 97 98 98 98 98 98 97 95 99 96
77 75 81 87 85 86 93 100 96 97 96 97 97 96 97 98 97 97 96 97 96 96 96 96 96 95 95 95 96 96 96 96 96 96 96 96 97 96 97 97 96 96 97 97
80 91 91 94 98 89 97 95 96 99 97 96 96 97 97 96 96 97 100 98 97 95 95 99 100 98 100 100 98 97 98 95 94 95 95 96 96 96 95 96 96 97 97 97

GFSCGP_850_rhum_102.txt.gz
RH
19 24 34 44 30 28 26 24 25 21 18 22 21 19 19 17 15 16 14 14 12 11 11 11 12 15 14 14 14 14 14 15 16 20 29 64 68 72 72 67 68 92 89 80
24 29 23 27 36 32 30 30 30 24 20 21 20 20 17 18 16 14 14 12 11 10 9 10 10 9 10 10 12 15 15 15 17 17 19 48 51 66 71 77 82 97 99 100
39 30 23 25 27 29 31 36 35 33 25 22 22 24 20 18 16 14 13 12 11 10 10 9 9 9 9 8 8 10 13 15 15 18 27 50 52 55 69 88 83 97 99 100
29 24 24 22 23 25 33 25 27 26 25 39 29 40 22 22 20 17 15 13 12 11 11 11 11 12 22 26 20 11 12 16 18 23 29 42 46 50 46 68 85 94 98 98
20 18 17 19 16 15 21 30 30 27 32 64 38 48 29 24 23 20 17 44 47 32 34 59 56 49 39 36 34 22 17 21 18 20 28 50 51 44 50 68 76 86 88 96
20 15 15 20 29 34 32 37 34 36 68 77 54 57 39 30 26 22 67 80 89 92 89 81 72 52 43 39 40 35 33 26 28 23 38 51 47 52 57 71 79 86 88 92
38 40 32 31 43 40 40 47 67 87 86 71 40 46 36 40 32 26 72 87 92 100 99 100 81 76 65 48 40 38 35 44 43 44 43 54 52 49 48 59 66 81 92 95
79 62 41 38 39 46 44 70 70 81 81 64 41 53 55 80 74 81 87 94 93 98 100 100 100 100 97 85 74 63 75 45 48 43 47 54 51 52 64 69 68 71 88 91
79 66 43 40 37 61 64 75 55 71 59 70 73 50 61 70 81 80 88 90 93 93 99 98 100 100 99 100 100 100 99 100 66 48 48 50 57 67 73 73 71 76 86 94
68 80 44 37 40 46 69 49 82 89 84 80 73 75 100 97 94 93 93 94 92 95 95 95 99 100 100 100 100 100 97 92 65 49 51 53 60 68 74 84 85 85 87 89
55 75 57 53 58 66 82 92 75 74 87 75 88 98 100 100 98 98 92 88 91 95 100 99 95 98 100 100 100 100 96 82 76 68 64 63 68 73 89 100 84 85 87 92
86 93 89 66 46 40 63 84 74 88 63 77 94 98 100 100 100 93 82 85 89 92 99 99 95 95 97 98 98 100 99 100 89 81 68 66 68 80 91 88 90 89 95 97
76 82 92 67 67 69 88 92 83 83 100 89 98 99 96 95 83 78 80 82 86 90 98 100 97 94 96 100 99 100 98 99 100 98 99 85 92 84 94 94 90 98 96 88
88 92 85 83 58 55 72 87 86 78 94 94 96 97 91 82 84 79 80 82 86 93 100 100 100 100 96 98 99 98 99 99 100 100 100 100 99 92 90 87 91 97 90 99
100 99 92 88 73 65 66 94 96 98 98 95 97 94 92 88 83 83 82 84 90 96 100 100 100 100 99 98 98 98 99 99 100 100 100 100 99 94 90 86 86 93 86 91
78 98 98 96 82 81 91 100 86 81 92 96 91 89 79 78 77 82 90 90 93 98 100 100 99 100 100 99 99 99 99 99 100 100 100 100 99 100 98 90 91 99 94 100
91 99 98 97 94 93 90 97 88 84 82 76 88 92 70 79 81 92 94 96 99 100 100 100 100 100 100 100 100 100 99 100 99 100 100 100 100 100 100 99 95 99 99 99
99 99 99 97 94 85 99 97 75 82 83 79 80 92 81 90 98 97 96 100 100 100 99 98 98 98 100 100 99 100 100 99 100 100 100 100 100 100 100 100 100 92 98 100
97 98 95 97 91 96 80 77 89 88 92 88 85 88 96 99 75 97 98 97 98 98 98 98 98 99 100 98 98 97 96 96 94 95 96 98 100 100 100 100 100 99 97 99
80 89 97 95 85 90 89 73 69 70 96 91 86 86 81 88 89 95 99 97 97 97 96 96 97 98 96 98 94 89 92 94 95 100 100 100 99 98 100 100 100 100 100 99
79 85 89 90 89 86 89 74 64 85 96 96 96 98 97 92 98 98 96 96 96 96 96 96 96 99 98 94 92 90 94 96 99 98 98 99 100 96 98 100 100 99 100 100
88 98 91 84 81 83 93 66 80 97 99 97 98 97 98 98 98 98 98 98 97 97 96 96 95 97 94 91 90 94 98 100 98 98 97 97 97 99 98 99 98 99 98 100
92 98 93 92 93 96 100 98 100 96 96 97 97 97 96 98 100 100 100 99 96 97 97 96 96 95 94 92 92 95 100 97 96 95 96 97 98 97 98 98 98 97 97 99
87 84 90 85 96 96 98 97 96 96 96 96 96 94 94 97 95 95 94 95 95 95 95 94 90 90 92 93 95 100 98 97 96 95 96 96 96 97 97 96 97 98 95 96
90 90 91 96 96 96 98 97 96 97 97 99 100 97 94 95 95 94 94 92 90 89 90 88 88 88 90 89 86 90 92 92 88 90 94 96 95 96 96 96 96 95 96 96
96 98 98 91 96 92 97 97 97 95 96 100 96 97 98 95 95 94 93 91 86 83 85 86 90 90 86 79 86 87 87 84 82 82 85 89 91 94 94 96 96 96 96 96

GFSCGP_850_rhum_105.txt.gz
RH
22 22 29 32 36 38 38 43 42 34 27 26 27 26 22 18 17 16 16 17 16 13 11 11 11 11 11 12 13 16 15 15 15 42 34 47 48 38 49 63 58 60 62 55
28 34 24 21 31 39 40 43 42 33 27 29 30 30 24 21 18 16 16 16 15 13 12 12 11 10 9 9 9 12 16 16 16 16 16 24 25 29 31 58 66 61 73 73
42 33 25 26 29 32 36 40 39 39 28 26 28 30 25 21 19 16 15 16 18 47 43 22 14 11 10 9 9 10 12 14 16 17 23 27 48 46 61 67 62 63 67 81
23 20 20 20 20 19 20 19 26 28 38 46 34 49 33 30 25 22 18 59 89 85 70 62 45 22 20 14 12 14 10 11 17 21 20 24 22 30 39 49 46 58 61 83
25 20 21 22 18 15 17 20 34 43 48 45 39 51 41 31 30 26 42 84 91 98 99 99 100 89 61 45 38 30 15 12 12 17 23 21 33 28 25 51 49 46 56 74
24 21 17 19 24 30 34 41 37 41 50 65 40 51 45 38 32 33 87 93 95 98 98 99 100 100 93 69 50 32 24 15 13 15 23 31 26 34 42 56 53 49 57 76
44 40 34 34 46 41 44 55 81 83 71 61 35 44 40 79 80 86 91 97 98 90 96 98 100 100 100 85 54 44 32 43 37 27 21 29 50 43 39 45 52 55 57 78
81 55 41 44 41 49 48 58 76 69 73 61 50 64 92 86 82 85 89 93 99 99 85 99 100 99 100 100 98 74 76 96 98 79 80 52 48 51 56 55 60 48 53 74
75 69 42 38 38 44 66 68 47 66 59 80 60 44 74 92 95 87 96 97 99 100 84 95 98 100 100 100 100 100 99 100 99 100 100 89 62 51 53 52 54 60 73 78
61 74 45 37 41 40 58 47 88 90 95 91 56 70 97 98 97 98 98 98 99 100 92 95 99 100 100 100 100 100 100 99 98 100 100 93 55 51 54 51 60 75 77 83
63 76 56 54 58 55 77 88 82 78 76 86 78 98 100 99 100 99 95 93 99 100 98 100 100 100 99 100 100 100 99 100 100 100 99 87 59 58 56 63 68 78 84 85
65 98 92 60 42 39 44 62 100 94 87 74 81 99 100 100 98 97 83 83 91 98 99 100 100 100 100 100 100 100 100 100 100 93 66 70 64 63 66 65 75 85 90 87
75 84 92 62 77 70 90 98 97 100 97 84 92 98 97 98 83 89 90 90 91 96 98 100 100 100 100 100 100 100 100 99 100 99 76 68 66 69 68 78 85 85 85 90
68 89 84 74 56 54 90 87 89 98 98 95 97 95 90 88 84 84 91 94 94 94 99 100 100 100 100 100 100 100 100 100 98 100 99 99 100 89 98 100 92 93 90 94
94 97 93 83 69 76 96 98 95 97 95 90 97 92 92 86 88 93 94 89 89 94 98 100 100 100 100 100 100 100 100 100 99 99 100 99 100 100 100 100 94 93 91 89
100 93 97 94 79 96 95 92 75 95 96 95 89 89 81 77 81 81 90 92 94 97 100 100 100 100 100 100 100 100 100 98 100 98 100 99 100 100 100 100 98 92 88 86
98 98 97 97 91 78 83 97 94 90 86 74 84 90 76 80 79 92 93 97 98 98 100 97 98 99 100 100 100 100 99 100 100 100 100 100 100 100 100 100 100 100 90 78
97 98 97 97 96 88 98 95 87 88 88 85 88 89 84 91 98 96 96 96 100 100 98 96 97 99 100 99 95 95 95 97 96 98 99 98 99 100 100 100 100 100 100 100
99 98 98 96 90 95 94 80 87 91 90 88 85 89 92 99 97 93 99 98 96 97 97 97 98 100 100 100 98 94 89 90 93 96 99 97 98 98 98 100 100 100 100 100
77 99 99 89 84 91 90 75 72 71 94 90 86 86 85 94 88 96 100 96 96 98 96 96 96 97 96 100 100 97 98 99 97 97 99 100 98 97 97 98 98 98 100 100
89 93 91 82 86 92 89 83 82 86 94 96 96 99 94 93 98 98 96 96 97 98 96 96 94 96 98 97 97 99 100 100 100 99 98 97 96 97 100 100 97 99 98 98
86 96 90 82 80 88 92 70 80 96 99 98 96 92 96 99 98 98 96 96 96 96 97 97 96 96 95 93 94 96 98 100 99 97 95 96 97 97 96 98 99 98 97 97
92 96 90 92 92 96 99 98 99 96 95 97 94 95 92 91 94 95 96 96 98 96 94 93 92 93 94 92 94 96 98 94 95 94 95 97 97 97 96 95 96 96 98 96
89 86 90 87 93 95 99 100 100 96 96 97 96 96 96 95 96 96 96 94 93 90 86 82 80 82 85 87 86 86 87 83 82 87 92 95 95 95 96 95 95 96 95 96
94 88 87 91 94 93 100 97 96 97 96 94 95 95 96 95 96 92 91 89 89 90 86 81 76 72 79 79 76 76 75 76 71 73 77 84 90 93 93 93 94 94 96 96
98 97 98 88 84 89 99 100 93 93 95 96 93 97 96 95 93 86 78 66 60 66 72 60 58 56 57 47 42 42 43 50 53 56 67 74 76 81 87 92 95 96 95 95

GFSCGP_850_rhum_108.txt.gz
RH
24 27 40 38 39 38 32 44 53 41 35 36 37 32 27 24 23 23 22 20 18 17 16 15 13 14 13 11 11 10 11 12 14 15 17 32 55 53 44 40 57 48 39 37
32 36 27 21 25 36 38 45 49 38 32 32 34 29 22 22 23 22 21 20 19 18 18 17 17 16 15 13 12 11 10 10 13 17 17 18 18 53 35 30 55 63 54 45
40 34 28 27 28 34 39 43 41 37 26 28 30 30 20 20 20 21 23 22 26 32 37 48 45 32 23 17 13 12 10 9 10 18 21 43 57 64 69 50 42 61 70 57
22 21 19 19 20 21 24 22 26 24 28 28 36 42 25 25 27 24 20 22 95 100 92 78 65 55 47 43 32 21 13 11 10 10 20 47 63 48 39 31 25 43 65 62
25 22 26 25 24 17 22 19 23 26 50 56 34 43 25 23 26 41 80 96 99 100 100 100 98 98 96 88 67 42 20 14 11 12 19 27 52 35 23 20 35 34 60 63
24 26 22 25 22 26 28 42 44 44 54 61 33 34 34 42 98 94 88 90 98 98 99 100 100 98 99 98 98 70 35 19 18 16 17 22 35 30 33 40 40 42 56 62
50 43 34 37 44 41 44 52 79 79 93 58 31 43 48 98 98 98 97 96 99 100 99 99 99 99 98 99 100 97 84 53 33 26 39 49 49 52 29 41 51 48 59 54
76 60 45 42 43 50 50 53 66 71 71 62 40 59 97 88 82 96 100 99 99 99 100 100 98 100 100 100 99 99 97 99 99 85 77 97 88 69 76 65 59 63 62 56
63 72 43 34 33 42 60 67 44 55 49 66 66 58 77 69 74 84 98 99 99 99 99 100 98 100 99 98 100 99 99 98 98 100 99 98 97 99 96 78 78 72 63 61
65 81 43 39 40 45 55 53 79 84 97 96 71 80 96 92 88 86 94 96 98 98 96 97 94 98 99 100 98 100 100 99 99 99 99 98 98 99 83 76 74 69 62 53
64 76 54 54 58 53 71 81 72 72 86 93 92 94 99 96 95 94 95 97 98 98 97 97 96 98 99 100 99 99 100 99 100 100 98 100 99 97 88 79 64 60 59 66
60 93 86 64 46 50 48 60 75 94 94 79 86 98 96 94 96 90 85 88 93 97 97 96 96 100 98 100 100 100 100 100 100 100 100 100 100 100 93 70 65 66 67 71
74 84 94 61 84 77 77 92 99 97 96 96 92 98 91 93 75 78 88 94 96 97 96 98 98 100 100 100 100 100 99 100 100 100 100 99 94 99 89 80 67 65 68 76
68 84 83 72 44 50 81 80 95 96 96 94 98 96 93 92 77 79 87 95 99 98 98 99 100 100 100 100 100 100 100 100 100 100 100 99 98 98 88 78 76 80 94 88
87 95 90 84 69 73 97 96 92 98 93 95 97 93 94 92 84 92 97 94 95 98 98 100 100 100 100 100 100 99 100 100 100 100 100 100 100 100 99 100 100 100 99 96
100 93 97 90 74 96 95 95 90 88 95 95 92 91 86 93 95 92 93 94 95 98 100 98 95 95 98 100 100 99 100 100 100 100 100 100 100 100 98 97 100 98 99 100
98 98 97 96 88 87 87 96 95 88 85 84 83 89 87 86 86 93 95 98 98 99 100 96 95 97 98 100 100 100 100 100 100 100 100 99 97 98 100 100 100 99 100 100
98 98 97 96 96 91 94 96 78 82 83 81 83 88 89 92 98 96 96 96 99 99 96 96 96 97 99 100 100 100 98 98 98 97 96 100 98 98 100 100 100 100 100 100
100 98 97 96 92 93 94 84 88 91 93 87 87 88 91 98 98 94 98 96 96 97 97 96 97 100 100 100 100 100 100 100 100 100 99 99 100 98 98 100 99 98 100 100
98 100 98 97 78 92 90 78 79 80 94 89 85 85 87 97 89 94 96 96 96 96 96 96 98 99 97 98 100 100 100 100 100 100 100 100 99 99 100 99 99 99 97 96
95 97 94 88 87 90 85 87 92 95 92 96 93 97 90 92 98 98 96 96 97 96 95 96 94 95 95 95 97 96 100 100 100 100 98 96 97 97 99 98 99 99 100 99
88 95 92 81 83 90 89 79 84 97 100 98 94 93 97 100 97 96 96 96 96 94 90 89 87 88 87 85 85 90 94 100 99 97 94 94 93 94 95 98 100 98 96 95
91 91 87 93 92 96 97 98 100 86 98 100 93 95 93 95 96 96 96 95 93 86 88 86 81 79 79 80 79 79 83 79 82 84 89 92 93 92 90 86 89 90 94 96
95 87 89 87 93 93 99 100 97 89 90 93 93 96 94 95 96 93 91 92 88 82 72 60 52 51 54 54 53 58 62 63 64 70 76 80 81 84 84 85 85 88 90 90
90 87 80 92 94 95 100 100 100 99 94 92 94 92 92 91 91 87 81 83 83 70 58 54 52 50 51 44 38 34 34 33 32 39 52 64 72 79 84 87 93 95 99 97
98 92 95 94 82 89 96 98 93 92 95 93 88 91 93 90 81 66 52 42 44 49 50 46 46 40 40 36 33 29 26 25 24 23 28 29 30 41 62 80 88 94 97 97

GFSCGP_850_rhum_111.txt.gz
RH
25 25 30 26 34 33 34 34 35 34 27 34 32 23 17 17 17 19 19 17 18 20 20 20 20 18 15 15 14 12 11 11 13 15 14 18 19 32 52 53 43 48 60 49
28 31 25 22 25 28 30 32 32 30 28 24 17 17 13 14 18 15 16 18 19 23 35 46 32 29 28 26 19 15 13 11 11 14 16 16 16 16 30 46 46 43 48 61
29 26 27 27 26 29 30 32 29 23 20 17 18 17 14 12 13 18 37 76 90 96 97 96 89 80 62 58 41 23 17 15 11 12 22 42 49 61 52 74 58 43 38 53
29 21 21 20 20 19 23 20 20 21 22 21 22 26 17 15 22 64 82 87 91 96 96 97 100 99 92 78 62 46 25 18 14 12 15 59 48 83 87 26 28 46 36 44
25 23 27 28 24 19 24 21 26 28 30 37 28 36 18 15 44 77 75 80 88 93 95 99 99 99 98 98 98 89 46 40 21 15 18 28 57 49 74 37 28 42 36 38
25 31 26 26 23 24 32 37 37 40 42 40 25 27 23 70 95 90 79 84 91 93 98 90 99 97 99 99 99 99 98 79 46 24 22 27 36 69 88 69 41 48 53 39
39 31 35 36 38 39 35 38 49 53 60 40 35 36 35 91 87 82 85 87 91 90 99 92 95 96 98 99 100 98 99 100 87 47 27 33 67 86 89 71 50 42 68 54
43 35 45 38 39 39 39 39 44 54 48 41 28 32 58 70 68 74 78 82 86 94 99 96 96 99 98 100 99 100 100 99 98 99 55 91 87 99 95 95 95 76 79 51
45 53 42 38 32 32 49 55 36 46 40 50 35 52 71 62 67 69 84 79 86 98 100 98 95 100 99 99 98 100 100 100 100 100 99 99 95 98 100 99 98 85 70 58
53 64 42 34 40 40 38 39 69 59 86 76 49 47 72 89 86 77 82 88 92 98 98 96 95 97 96 100 98 100 100 100 100 100 100 94 89 98 99 100 98 92 85 78
54 52 42 47 47 44 59 59 53 53 54 76 73 82 94 94 90 89 83 87 97 99 96 97 96 96 94 99 100 100 100 100 100 99 100 100 99 99 100 99 100 98 94 82
58 78 77 58 43 53 48 50 77 87 72 83 86 83 86 91 89 92 78 91 92 97 96 96 96 96 97 97 99 100 99 100 100 100 100 100 100 100 98 99 99 99 98 96
73 76 71 60 86 68 62 64 79 97 84 81 88 92 83 91 84 80 88 87 90 96 97 96 95 96 96 100 100 100 100 100 99 100 100 100 100 99 100 98 99 100 93 82
71 78 74 43 31 39 67 72 77 94 90 64 92 91 86 89 76 77 88 89 95 98 98 98 97 99 100 100 99 98 99 100 99 100 100 100 100 100 100 100 100 100 99 100
83 85 84 79 63 66 91 88 89 92 80 83 93 90 91 90 87 89 90 92 92 96 99 95 95 96 99 99 100 100 100 100 100 100 99 99 100 100 100 100 100 100 100 100
92 87 97 94 63 81 89 91 93 93 95 91 92 89 76 83 84 87 92 94 93 97 99 96 96 97 97 98 98 100 100 100 99 99 100 100 100 100 100 100 100 100 100 100
96 93 91 87 86 84 92 94 93 93 89 91 86 80 75 78 81 92 93 96 97 100 98 96 96 96 98 97 98 98 99 100 100 100 99 98 99 100 97 100 100 100 100 100
97 95 88 86 95 92 95 92 75 80 82 76 76 78 81 88 97 98 98 99 99 98 96 97 98 99 100 100 100 100 98 98 98 99 100 98 98 100 96 98 99 98 99 100
99 96 90 94 88 91 92 84 88 87 88 84 80 81 88 96 99 94 100 98 96 96 96 96 98 100 98 100 100 100 100 99 95 94 97 99 99 98 98 99 97 98 99 100
100 98 86 86 86 84 82 73 79 81 90 83 80 80 85 89 82 88 100 96 96 97 96 92 87 85 84 93 97 97 100 98 98 100 100 98 96 97 98 98 97 99 100 98
88 95 90 89 81 82 78 80 90 97 93 91 89 93 91 86 92 99 96 98 99 94 89 86 84 81 78 76 79 83 90 97 99 98 95 93 94 98 99 100 98 99 98 99
91 93 90 87 82 86 85 84 87 91 98 95 99 99 99 99 97 96 96 88 85 82 76 70 62 58 56 56 60 69 78 83 81 84 85 86 85 87 87 87 90 91 92 92
90 93 90 89 84 90 99 99 100 92 96 100 97 92 88 92 95 95 94 86 76 63 55 47 43 40 37 36 33 35 43 46 49 53 62 70 75 76 78 78 81 80 82 84
90 85 79 82 87 90 98 100 97 92 90 90 90 91 86 88 90 91 90 79 63 57 52 42 32 29 30 28 26 27 30 24 21 21 24 30 34 47 53 60 70 72 82 84
86 79 76 87 88 90 100 100 100 94 91 92 94 92 93 85 84 78 77 65 55 54 48 37 31 28 26 22 19 18 18 17 16 17 19 20 22 28 39 50 64 77 89 90
92 87 86 82 79 81 93 100 96 94 95 92 90 94 89 75 61 45 38 45 44 38 37 36 36 31 32 26 23 17 16 15 13 12 16 19 20 22 23 28 37 39 41 43

GFSCGP_850_rhum_114.txt.gz
RH
21 21 21 16 16 17 18 19 17 13 14 18 17 14 10 8 8 8 9 11 12 23 42 52 62 65 68 67 57 35 19 24 23 38 53 67 84 85 80 87 75 60 54 51
24 23 16 18 18 20 20 19 17 15 18 17 12 10 8 7 9 12 11 24 50 57 64 69 73 76 81 81 80 81 66 45 52 53 38 59 68 82 68 73 73 84 78 53
19 13 19 19 19 22 20 22 20 18 13 11 11 11 7 10 10 24 49 54 57 63 68 72 76 80 86 87 90 86 76 71 48 58 69 42 66 72 82 84 92 92 65 47
19 14 20 21 21 19 21 14 15 16 17 15 11 18 13 9 16 37 45 53 60 63 64 69 76 81 87 90 97 93 80 63 60 69 80 69 45 61 72 89 86 24 37 55
20 20 22 23 20 17 18 18 20 21 22 22 18 20 15 9 15 45 57 65 64 66 67 70 76 83 87 90 97 97 94 79 74 92 96 91 63 61 63 79 90 61 18 44
18 21 19 18 18 19 18 23 20 22 25 30 18 15 15 23 69 72 68 73 68 67 72 75 78 84 88 93 98 90 93 90 81 83 90 98 94 64 59 65 82 88 52 22
22 22 20 24 23 23 25 27 29 30 41 31 20 26 16 62 63 64 67 68 67 72 78 84 88 89 95 100 96 91 92 94 96 98 99 87 93 91 74 65 77 85 96 94
26 26 25 28 25 24 30 29 28 24 20 18 24 29 26 54 52 55 61 66 72 77 83 89 97 98 100 99 99 99 100 99 100 98 99 99 78 91 81 75 72 81 94 99
28 26 27 32 29 27 28 38 23 34 30 39 26 18 46 52 56 56 64 70 78 83 89 95 100 100 100 98 99 100 98 99 99 98 100 99 97 98 84 82 82 85 94 98
30 37 25 27 30 27 28 27 53 42 64 53 29 28 59 89 79 72 77 78 86 91 98 100 100 100 100 98 96 99 100 98 99 100 100 99 96 89 98 98 91 94 97 99
34 39 30 34 33 29 39 43 41 42 46 58 57 76 92 93 91 85 70 69 82 92 100 97 98 99 100 98 98 100 96 100 100 100 100 100 100 94 99 89 92 92 98 95
36 52 49 38 31 35 30 35 40 60 61 50 62 69 76 85 80 77 68 71 78 89 99 95 97 96 97 96 95 97 97 98 100 100 100 100 100 99 95 91 93 92 96 98
50 51 55 52 79 56 75 50 40 58 77 69 78 79 76 84 71 79 81 76 80 88 96 98 93 95 95 95 96 97 100 100 100 100 100 100 100 100 100 100 100 99 100 100
56 57 64 43 32 32 51 65 67 77 86 60 75 93 84 85 83 80 80 84 91 94 97 98 98 95 96 96 96 97 100 99 100 100 100 100 100 100 100 100 100 100 100 100
61 66 66 66 51 47 64 71 67 88 73 90 90 88 89 89 88 85 94 91 92 94 96 99 99 96 96 96 97 97 100 99 99 100 99 100 100 100 100 100 100 100 100 100
54 70 79 81 60 63 93 83 79 91 81 93 91 86 86 72 84 84 91 93 93 95 98 99 98 96 96 97 96 97 98 99 99 99 100 100 100 99 100 100 100 100 100 100
96 85 89 82 65 80 91 91 93 91 84 88 86 84 79 71 76 90 91 94 95 97 98 99 98 98 98 97 97 97 97 98 98 99 99 100 98 100 99 99 100 100 100 100
92 94 83 72 87 88 97 88 74 76 85 78 80 68 68 78 92 95 98 97 97 99 100 100 100 100 100 100 100 100 100 98 98 98 98 99 100 100 99 98 99 98 99 99
99 93 85 83 70 83 86 86 80 88 86 67 68 68 75 82 80 90 100 100 100 100 100 100 100 98 98 99 98 98 90 92 93 98 96 99 98 98 100 97 98 97 98 95
100 100 92 67 67 72 72 63 67 64 88 71 67 67 74 77 77 85 100 100 100 90 80 71 68 69 68 80 82 81 85 86 89 92 94 92 93 100 97 97 97 99 98 98
85 95 85 69 76 69 64 67 72 92 94 78 72 78 78 79 86 100 100 99 98 74 49 43 37 35 37 41 49 56 64 76 81 81 81 82 83 85 88 90 90 91 91 91
83 83 79 72 74 73 74 75 84 89 85 89 92 99 99 100 100 100 99 86 63 54 45 34 28 27 26 22 21 23 27 41 41 43 49 58 63 71 76 76 78 77 77 79
87 81 73 78 80 78 91 91 87 83 87 90 95 100 100 100 100 100 100 93 65 47 40 37 30 24 21 20 20 20 21 18 16 15 17 21 27 27 30 34 42 47 56 64
83 91 86 77 78 81 90 94 88 89 98 97 100 100 100 100 100 100 100 98 69 41 34 32 29 24 22 19 16 15 14 14 13 12 14 17 16 21 16 16 20 20 24 31
80 82 79 84 81 83 92 99 100 100 100 100 100 100 95 89 88 79 83 81 69 50 41 36 36 35 26 18 19 16 13 11 12 10 10 14 18 18 56 33 22 26 21 20
74 80 78 79 74 78 90 100 100 100 100 100 100 100 92 71 74 68 67 63 57 55 58 60 58 58 63 44 23 53 32 26 26 55 54 22 33 37 33 44 77 19 18 17

GFSCGP_850_rhum_117.txt.gz
RH
14 16 18 14 13 12 14 16 14 10 8 9 11 12 9 7 6 6 6 6 7 16 36 44 50 54 61 64 68 65 68 70 70 63 39 43 68 76 80 79 89 84 88 89
16 22 16 12 12 16 17 16 14 10 9 11 14 12 8 7 6 6 8 9 27 37 39 44 50 56 63 68 72 77 76 74 75 68 64 45 40 54 69 75 79 88 89 90
17 16 12 14 15 17 16 15 15 14 12 10 11 11 9 8 8 8 25 33 34 40 46 48 50 54 61 67 74 79 84 84 83 85 81 70 56 46 56 72 76 85 89 92
14 11 13 14 17 15 17 11 13 15 16 19 13 20 14 11 10 15 28 40 46 50 50 52 56 58 62 65 73 80 86 93 91 90 88 83 71 52 43 64 81 76 86 90
17 13 18 17 14 14 18 14 17 17 18 20 17 18 15 11 11 23 38 47 50 51 54 58 62 66 68 67 74 84 94 97 97 98 100 98 89 76 68 52 68 76 82 83
17 14 15 15 13 14 14 17 19 19 21 30 21 19 16 26 48 43 44 49 52 55 58 62 66 72 75 78 82 91 98 99 100 100 98 98 96 95 83 71 58 74 79 80
18 17 15 18 20 16 20 26 35 35 31 31 18 18 16 39 43 48 48 51 57 61 64 69 75 82 87 90 93 99 100 100 100 98 97 92 93 90 96 85 64 78 82 85
30 36 18 16 23 18 17 23 33 39 32 24 12 21 28 38 39 44 52 56 64 69 74 79 86 94 98 100 100 100 100 100 99 98 94 90 92 99 92 86 43 65 75 78
24 21 17 22 18 20 19 24 20 31 28 35 23 15 31 42 48 52 59 61 70 75 85 90 96 100 100 100 100 100 100 99 100 99 96 98 99 99 98 84 67 65 75 72
24 32 16 16 21 22 25 18 35 34 54 45 24 20 66 90 75 66 68 63 71 81 93 99 100 100 100 94 99 100 100 100 99 99 100 100 100 99 99 98 76 76 80 80
19 32 25 21 25 26 22 33 29 29 44 55 55 81 88 88 86 82 65 62 70 83 91 93 94 100 97 98 99 98 100 100 99 100 100 99 99 99 99 98 81 76 84 84
24 38 42 25 17 20 23 26 30 53 45 52 43 57 69 78 72 69 74 79 69 81 86 96 94 97 97 96 96 96 98 100 100 100 98 100 100 100 100 100 91 90 86 85
31 38 48 36 35 40 52 38 27 39 57 65 82 72 69 73 66 73 82 80 83 86 90 95 98 96 97 98 96 96 97 98 100 97 100 100 100 100 99 100 95 83 91 95
42 52 58 50 62 42 53 44 44 44 62 50 56 95 87 86 79 76 90 94 94 92 96 98 99 96 96 96 97 96 96 97 98 99 100 100 100 100 100 100 87 99 100 100
42 59 61 50 41 37 42 49 51 73 62 86 78 83 87 90 82 90 95 95 94 95 96 98 98 96 98 97 96 97 97 96 97 99 99 100 100 100 100 100 100 100 100 100
41 64 73 75 50 51 69 64 60 79 82 83 88 88 86 84 89 90 94 95 94 95 98 98 98 99 99 98 96 97 97 97 97 99 98 100 100 100 100 100 100 100 100 100
58 82 82 76 49 60 86 88 78 90 75 86 85 82 81 83 81 92 94 96 97 97 99 100 100 100 100 99 100 97 97 97 97 98 98 97 99 98 100 100 100 99 99 100
90 96 76 71 67 83 93 73 70 85 80 70 71 83 77 75 92 96 98 98 98 100 100 100 100 100 100 100 100 100 100 95 96 98 99 98 96 99 99 99 99 97 100 100
79 88 89 81 65 79 82 81 77 88 82 73 67 62 68 76 79 93 100 100 100 100 100 99 100 99 77 87 80 90 90 90 86 90 93 93 96 95 96 96 98 97 98 99
61 80 91 73 66 70 68 56 54 54 91 58 56 61 65 67 88 88 100 100 99 73 76 52 36 32 26 32 40 39 48 58 70 82 84 84 82 81 85 92 96 97 98 99
98 100 88 68 73 76 51 52 61 90 90 64 60 65 67 76 95 100 100 99 98 51 33 31 29 27 24 21 19 20 22 27 36 30 31 38 46 54 61 64 67 73 79 78
64 78 84 63 80 84 62 60 76 84 74 71 82 100 100 100 100 100 100 99 96 80 36 26 21 19 18 17 16 17 18 24 16 16 13 12 12 13 13 13 15 16 22 31
74 67 85 74 81 75 80 83 78 76 81 85 94 98 100 100 100 100 96 94 96 65 65 46 24 20 19 17 15 18 20 18 15 13 12 14 14 9 7 7 7 8 10 12
68 66 66 70 74 75 82 79 77 81 88 89 94 98 99 100 100 98 93 88 86 85 82 85 77 36 23 28 24 26 28 32 23 20 39 46 29 47 21 11 9 7 8 9
72 67 70 80 74 76 87 86 92 95 98 99 99 100 100 100 99 96 95 89 79 74 74 75 74 70 59 45 52 30 33 32 74 74 66 84 86 80 95 87 66 40 24 17
63 88 78 93 70 72 85 98 99 100 100 100 97 94 95 95 86 75 60 48 43 46 46 47 52 54 56 64 68 62 41 67 63 82 81 66 89 90 91 94 99 100 82 50

GFSCGP_850_rhum_120.txt.gz
RH
17 21 21 17 15 14 15 15 16 14 12 11 12 10 9 8 10 8 8 7 9 9 34 38 44 48 52 57 62 68 74 74 72 70 67 64 48 58 84 86 85 87 91 80
18 22 16 15 16 16 14 16 19 16 11 11 11 12 10 10 9 8 8 11 27 32 38 43 46 49 53 57 61 67 72 76 81 79 74 69 65 48 63 79 78 81 90 88
24 19 14 15 15 16 16 18 19 16 12 11 13 15 13 10 10 9 16 28 37 42 44 47 50 54 59 63 64 67 73 78 84 87 83 73 58 64 51 58 75 80 72 90
18 14 15 15 15 14 19 14 14 14 17 21 13 22 15 13 12 12 32 41 44 45 47 51 55 59 64 67 71 74 78 82 86 91 93 93 91 78 58 60 52 79 77 76
20 16 15 15 15 15 16 13 16 17 20 21 20 22 19 16 17 44 41 44 46 49 54 56 61 65 70 74 81 85 89 89 89 96 98 98 99 88 74 58 68 61 78 76
14 11 13 14 14 13 13 16 17 18 21 33 23 22 21 32 42 45 41 44 50 56 60 64 68 74 79 87 91 94 93 98 97 92 98 99 98 99 80 54 51 60 68 80
18 17 13 13 18 16 16 23 38 39 39 39 21 22 50 44 43 44 48 52 58 63 69 74 79 87 92 95 98 98 99 98 99 99 98 100 100 100 99 77 47 35 48 67
26 30 19 16 19 22 22 21 35 44 46 38 22 27 45 38 43 51 53 56 63 70 77 84 92 95 99 99 99 99 99 99 100 100 100 100 97 95 94 90 73 51 34 31
30 27 14 16 17 18 24 28 18 31 27 40 29 21 44 52 55 55 57 60 67 75 86 92 95 99 99 99 100 100 100 99 96 100 100 99 99 100 99 94 95 77 47 32
26 37 21 19 15 17 22 20 38 33 49 51 30 33 85 87 75 66 65 67 71 81 90 96 94 92 97 98 100 100 96 97 100 100 100 100 100 100 100 99 99 89 69 43
19 24 25 21 23 22 24 31 30 30 34 52 60 68 91 91 85 77 66 67 73 86 92 95 95 96 96 96 96 96 98 99 100 100 100 100 100 100 100 100 100 92 82 64
22 31 45 34 20 16 18 21 25 57 52 36 45 74 71 78 68 65 68 73 78 89 97 94 96 96 97 95 97 99 96 96 97 100 100 100 100 100 100 100 100 100 100 91
26 37 49 34 28 21 21 29 31 34 56 61 72 81 71 66 64 74 79 83 86 98 98 96 95 96 96 96 96 96 96 97 97 97 100 100 100 100 100 100 99 100 100 94
44 44 58 53 51 45 66 80 43 42 58 52 60 93 80 72 71 79 85 91 97 98 96 96 94 96 96 96 97 96 96 97 97 97 97 99 100 100 99 100 100 100 100 90
37 53 59 49 38 31 40 43 38 62 50 70 79 89 82 81 84 94 93 97 98 98 98 95 95 96 97 95 98 97 96 96 97 97 96 95 100 100 100 100 100 100 85 76
38 56 69 74 45 45 54 52 44 60 68 80 82 76 74 88 97 92 96 98 98 97 96 96 97 99 100 96 97 97 97 96 97 96 97 96 97 98 100 99 99 98 97 95
57 78 70 68 49 54 70 76 74 69 61 60 75 74 83 89 89 95 97 98 97 98 99 100 100 100 98 98 100 100 100 96 95 97 97 97 97 98 98 100 100 98 100 100
82 83 64 76 65 82 84 63 56 66 71 83 74 82 83 84 97 98 95 97 96 98 99 96 97 76 71 86 68 81 77 79 83 87 88 95 97 98 98 97 100 91 98 99
74 76 86 85 62 76 73 68 71 82 87 64 71 78 80 87 89 98 97 97 87 76 66 42 44 38 34 44 33 35 30 31 38 47 56 64 72 78 86 96 98 96 97 98
65 72 89 66 92 85 73 54 52 56 87 64 61 64 70 79 92 93 100 98 64 36 32 26 23 23 18 23 21 20 19 22 21 23 20 16 18 20 37 60 67 80 92 95
84 90 89 72 82 79 50 50 51 85 90 62 56 60 66 77 94 100 97 90 49 26 24 23 20 17 21 22 18 20 23 27 37 18 12 9 7 8 11 12 14 14 17 23
69 77 74 68 83 83 49 53 70 81 64 66 87 82 94 99 100 92 72 67 58 48 28 22 18 18 18 21 22 24 31 44 32 27 20 20 14 7 6 5 5 5 7 7
73 70 87 92 87 72 77 84 76 72 80 92 98 99 84 94 88 85 92 85 61 47 63 48 26 22 18 25 26 38 48 45 36 37 40 33 31 26 17 9 7 5 5 5
62 59 65 71 73 72 77 74 76 81 90 92 98 98 91 93 89 88 84 82 80 73 71 73 67 34 39 40 32 38 43 54 68 50 78 77 75 68 53 34 26 15 14 10
66 60 65 83 74 73 80 90 92 93 92 94 96 98 97 91 93 87 77 66 58 55 54 58 57 56 53 48 52 40 46 53 77 83 62 87 94 91 100 96 92 78 81 71
61 87 76 85 70 69 86 98 96 95 94 98 98 96 95 91 86 80 65 50 45 45 45 48 53 49 47 32 37 39 25 35 58 77 87 65 76 84 93 94 99 100 100 100

GFSCGP_850_rhum_123.txt.gz
RH
20 31 36 26 22 19 19 22 22 18 17 17 17 16 13 11 11 12 10 12 32 44 47 49 50 49 45 38 32 26 22 23 26 23 28 32 44 46 54 54 85 90 73 78
25 33 25 21 20 21 25 24 23 19 17 17 17 17 14 13 12 13 20 39 45 47 50 52 53 51 47 46 45 41 36 37 45 51 48 56 52 50 58 55 71 94 92 87
31 25 20 20 22 22 21 21 22 22 18 16 18 19 17 14 12 40 45 47 51 56 57 59 58 59 58 57 57 53 50 48 53 63 61 59 57 52 44 54 59 64 69 92
28 22 22 21 21 19 22 18 19 21 24 32 19 33 22 16 26 46 48 52 58 60 61 64 66 68 70 68 66 58 56 60 60 63 66 70 78 79 56 44 45 55 62 77
31 22 21 22 20 16 22 20 22 22 26 28 24 34 24 19 54 52 50 59 63 66 70 74 78 79 73 65 61 63 64 64 66 65 67 72 76 86 91 64 41 36 52 60
24 15 16 18 16 17 18 20 26 28 30 42 26 30 42 64 57 57 57 61 66 69 70 69 69 68 67 66 68 70 73 78 72 68 70 74 78 82 96 98 62 43 30 45
24 22 17 14 20 18 19 26 60 63 61 51 26 30 70 58 59 58 63 66 70 78 84 84 93 85 82 84 85 86 90 84 81 77 76 83 94 97 96 100 91 65 45 28
35 42 22 19 21 26 28 30 53 64 62 48 27 40 71 57 57 59 64 68 76 83 87 97 91 88 90 90 92 99 100 100 86 85 86 89 94 100 100 96 91 81 69 49
34 33 21 19 19 23 27 35 26 39 37 46 38 58 70 59 65 65 67 74 84 86 94 96 89 89 89 89 92 100 100 96 94 98 99 98 99 100 98 99 99 86 69 62
29 46 25 20 19 20 25 24 54 65 65 61 46 47 87 89 87 82 73 78 92 92 92 92 90 90 88 91 94 100 95 100 100 98 100 100 100 100 100 99 98 99 90 74
22 37 34 27 27 32 32 40 39 47 49 69 77 76 90 93 84 80 69 74 91 92 96 96 89 89 94 96 98 97 96 98 95 96 99 99 100 100 100 100 99 98 99 89
32 44 58 43 29 26 27 31 41 72 53 52 58 76 80 86 76 70 70 77 88 97 98 96 94 95 96 96 95 96 96 94 98 98 98 99 100 100 100 100 100 100 100 97
33 49 72 58 47 44 60 61 66 60 67 64 92 91 88 82 69 74 80 88 96 100 97 93 94 92 95 95 96 96 96 96 96 97 97 97 99 100 100 100 100 100 100 100
36 56 68 62 56 52 57 46 52 75 96 77 83 94 94 74 68 75 89 95 100 100 96 96 93 94 95 96 95 96 96 97 96 96 97 97 96 100 100 100 100 100 100 100
49 64 64 61 51 45 55 50 44 67 60 81 86 95 89 80 84 92 97 98 99 99 94 95 92 94 94 95 96 96 96 96 96 97 96 97 97 96 100 100 100 100 99 99
52 74 80 84 56 56 68 61 56 62 64 86 91 97 78 88 95 97 97 98 99 96 91 80 67 72 74 86 79 79 86 96 96 97 97 97 97 98 95 97 99 100 100 100
67 81 87 87 60 64 81 66 69 63 62 70 88 83 83 90 93 98 99 98 97 98 84 58 42 50 48 59 44 42 41 41 53 77 93 97 97 97 97 97 98 99 98 99
82 82 80 91 82 96 73 66 64 77 71 75 84 85 79 88 98 98 96 91 78 74 49 34 31 34 32 30 27 22 22 16 17 17 26 55 73 92 97 97 97 98 98 96
73 85 89 97 91 70 78 68 74 80 83 70 80 81 87 97 96 99 89 54 41 36 33 31 30 33 29 24 24 22 15 14 12 11 9 12 15 17 31 44 58 75 94 97
72 77 87 92 95 92 94 60 55 58 94 72 78 80 87 89 95 97 93 43 27 26 24 23 26 27 25 24 20 21 31 28 34 29 16 9 9 9 13 12 11 12 12 15
96 94 92 89 93 81 60 55 55 93 84 71 76 79 87 91 95 92 68 34 23 22 23 20 19 20 28 28 22 22 38 43 61 40 32 19 11 8 6 6 6 6 5 5
84 93 96 87 94 91 62 57 77 79 73 67 70 76 83 93 92 76 56 42 38 31 24 21 15 16 22 27 25 32 44 64 44 36 32 36 25 17 11 7 5 5 5 5
83 77 90 90 92 78 79 81 74 69 76 80 69 75 74 83 74 55 50 44 40 38 41 30 24 18 20 24 24 36 61 53 45 37 48 42 40 29 20 16 14 10 8 6
72 61 91 85 90 85 76 75 76 77 77 82 74 76 75 66 53 62 58 54 47 55 56 46 34 26 21 22 30 40 52 58 57 49 54 62 65 66 63 56 53 39 44 35
84 71 86 89 82 75 74 85 86 90 89 89 88 79 67 53 69 65 58 39 41 43 50 50 37 25 26 24 20 27 32 48 72 86 73 80 86 88 98 100 100 95 100 89
74 86 91 93 76 75 87 96 89 88 91 93 90 86 71 53 58 42 44 48 48 50 51 43 32 18 15 23 24 27 24 26 37 47 55 51 57 70 76 80 85 99 99 100

GFSCGP_850_rhum_129.txt.gz
RH
24 32 38 32 28 23 24 27 30 27 22 23 20 22 16 53 59 64 63 64 67 66 63 56 50 45 40 36 34 32 30 27 25 20 17 14 13 13 12 11 12 16 15 16
23 36 29 28 30 31 32 34 36 31 25 21 21 20 65 59 63 66 68 67 66 64 60 53 47 43 40 39 37 35 34 33 34 34 33 31 27 19 17 16 16 19 24 24
29 23 22 28 30 34 35 36 35 30 22 21 21 25 47 59 61 65 68 68 66 65 60 56 54 52 49 46 44 43 41 40 38 38 37 38 37 35 32 29 26 28 32 33
40 31 31 32 34 33 42 25 24 23 26 33 22 40 30 66 69 66 72 73 72 68 64 61 58 57 60 60 58 57 54 51 51 51 51 53 52 46 48 48 40 38 39 38
40 28 30 28 32 27 26 21 21 24 27 30 30 35 48 66 75 74 72 79 81 76 71 65 64 63 63 64 63 64 68 71 70 69 69 70 68 66 63 62 58 54 55 53
33 24 22 26 22 20 20 23 31 38 36 43 32 34 38 78 74 76 74 82 80 77 73 72 71 70 70 73 78 80 84 76 77 75 72 74 78 82 78 79 80 72 71 70
27 25 20 20 24 21 24 31 54 54 59 52 37 40 40 78 72 72 79 85 85 80 78 81 79 77 76 77 78 81 87 81 84 87 86 90 93 96 100 100 100 99 98 98
39 38 24 22 24 28 30 35 52 53 69 47 37 48 58 71 71 75 82 88 86 84 84 82 78 78 78 81 84 89 88 86 89 88 92 98 100 100 100 100 100 100 99 97
42 38 24 20 20 25 30 37 33 41 48 61 48 71 70 72 79 79 82 91 94 89 84 83 80 82 83 88 93 100 96 93 92 94 98 100 100 100 100 100 100 100 100 100
32 41 31 23 21 24 27 29 48 66 61 63 52 48 70 92 88 81 85 95 93 89 85 88 90 91 93 94 93 89 92 95 96 96 96 99 100 100 100 100 99 100 100 99
32 40 37 26 29 34 34 36 41 50 53 61 54 71 75 84 87 86 82 91 91 89 89 92 92 94 95 94 93 94 96 98 95 92 96 93 96 97 98 99 100 100 100 100
30 48 51 37 31 33 30 40 46 71 51 60 60 56 81 87 87 77 79 85 89 88 89 91 92 94 94 94 96 97 96 92 92 97 96 95 95 97 96 97 100 100 100 100
41 49 66 50 44 44 42 57 50 64 76 70 72 69 85 89 82 78 85 88 87 87 89 89 89 85 62 56 88 97 94 94 95 95 96 96 95 96 96 97 100 100 100 100
38 52 60 55 48 54 62 57 61 60 95 73 74 66 96 98 90 87 90 89 90 92 90 72 48 44 35 28 26 51 63 90 97 96 96 96 95 96 96 97 97 100 100 100
47 47 72 60 52 53 57 58 55 71 58 78 55 72 78 89 87 88 88 92 93 92 72 42 33 30 24 17 12 13 19 30 68 90 97 97 97 97 97 97 100 100 100 100
56 70 80 76 55 61 70 65 58 68 63 68 78 63 78 86 83 92 92 96 95 80 52 35 30 25 20 15 11 9 10 15 14 13 23 54 84 95 98 98 97 96 98 99
66 82 84 77 68 69 83 71 73 77 68 62 73 59 94 96 89 98 96 92 91 59 36 28 29 26 24 19 15 9 8 9 9 8 10 11 12 13 20 39 58 74 82 88
80 81 78 88 73 79 56 70 70 74 68 68 79 92 84 88 98 94 93 89 71 38 28 25 27 31 32 28 24 20 14 9 7 6 7 8 8 9 8 9 9 10 11 13
69 86 92 85 81 65 53 76 79 87 78 81 91 88 100 100 96 98 96 92 41 24 22 24 29 37 33 29 31 22 19 13 11 10 9 8 8 8 7 7 10 11 10 9
70 77 76 95 98 95 67 72 61 59 90 86 84 90 94 89 94 95 94 49 25 22 21 26 31 37 36 38 33 23 23 22 20 21 22 15 9 7 8 9 8 12 13 16
90 91 73 82 90 77 59 62 58 80 71 84 86 90 94 90 87 77 76 32 23 18 22 30 37 33 33 42 38 22 25 24 33 30 31 25 17 13 11 11 11 12 11 10
78 91 92 89 94 85 61 68 76 70 82 79 84 86 92 86 88 79 35 21 20 18 27 34 32 36 47 45 32 27 24 39 31 27 29 30 28 25 15 12 12 12 13 16
93 80 88 78 74 71 65 72 68 70 75 80 76 83 78 84 83 47 24 19 22 22 28 30 28 34 50 49 45 26 30 33 30 27 28 29 27 24 26 21 19 22 25 32
88 73 88 77 79 84 67 75 73 70 68 72 72 70 76 75 76 32 21 23 27 32 28 27 31 35 38 39 36 38 36 26 24 22 22 24 26 40 41 43 33 26 46 55
88 88 94 90 84 78 77 74 73 73 73 76 77 70 73 69 61 27 24 27 33 36 34 35 34 25 27 32 24 31 31 26 15 19 25 31 37 39 43 53 74 55 66 92
95 90 90 88 69 68 61 59 76 77 73 76 74 79 77 68 53 28 24 26 37 42 37 34 32 29 27 20 17 18 23 24 18 18 23 26 26 28 35 40 44 60 88 100

GFSCGP_850_rhum_132.txt.gz
RH
26 31 36 30 27 24 24 27 30 28 24 25 28 25 61 62 64 69 70 68 66 63 59 52 46 42 39 37 35 34 33 31 30 27 25 22 20 18 18 18 17 16 19 20
26 35 29 28 30 29 32 34 39 33 28 29 28 26 65 66 69 69 70 73 71 64 56 50 46 43 40 39 38 36 36 35 34 34 34 35 34 31 29 26 26 25 24 26
34 26 27 28 30 35 36 39 37 37 24 22 22 29 67 65 67 68 71 72 70 69 64 58 53 51 48 45 43 43 42 41 42 43 42 42 42 40 40 37 36 36 31 32
37 30 30 32 33 34 41 34 35 32 26 34 24 41 33 72 72 68 72 70 69 66 63 62 59 57 57 56 55 56 56 58 59 58 58 60 60 57 57 54 50 46 50 45
44 30 35 36 36 34 38 23 23 24 27 31 31 37 43 74 78 76 73 75 75 73 70 66 65 65 65 65 70 74 77 74 75 76 76 78 79 85 79 76 71 68 63 60
36 26 24 28 24 20 23 22 31 42 38 48 36 36 40 80 66 77 75 79 78 75 69 69 70 73 75 78 79 78 83 81 84 86 88 99 100 100 100 100 98 87 80 83
35 35 24 23 28 22 25 32 55 57 56 49 38 42 34 69 70 68 74 81 80 77 72 73 72 75 74 76 78 78 80 81 83 85 89 93 100 100 100 100 100 100 100 100
47 38 28 23 26 29 32 37 52 51 62 50 40 51 42 72 68 72 74 78 80 74 71 76 78 77 76 78 80 81 81 83 83 84 85 90 98 100 98 100 100 100 100 100
41 35 25 22 23 26 33 39 34 41 48 64 43 43 72 77 82 85 86 89 82 79 78 78 79 80 83 85 87 89 91 88 86 90 97 96 97 100 100 100 98 99 100 100
33 38 31 24 22 26 28 32 50 67 63 63 55 51 54 90 87 88 90 90 89 87 81 82 83 86 89 90 91 91 93 91 92 95 99 99 99 99 96 96 96 97 99 100
39 38 36 25 30 36 34 38 46 51 54 68 62 71 70 70 81 89 87 87 88 89 84 87 88 90 80 83 90 92 92 93 91 93 96 96 95 96 96 96 96 97 98 99
34 50 54 38 36 37 31 36 47 71 50 59 69 57 86 88 89 80 84 88 91 88 84 87 88 70 43 33 62 83 91 90 93 94 96 95 96 95 95 96 96 97 97 99
42 47 64 52 43 43 38 44 45 65 72 52 75 65 85 89 83 76 83 89 89 82 84 82 62 36 22 16 18 26 38 74 94 95 97 96 95 96 95 96 96 97 99 99
40 50 60 54 49 55 61 58 63 62 80 51 58 58 72 96 89 86 86 88 87 82 86 51 33 22 15 11 12 14 14 18 29 72 96 95 95 96 96 96 96 96 96 97
47 45 68 55 47 50 50 56 60 73 52 69 54 63 49 78 89 84 86 92 88 88 71 34 25 17 12 10 10 11 12 12 12 13 17 40 81 93 96 98 98 97 97 98
56 76 77 70 52 55 66 69 65 61 63 69 69 65 49 58 78 93 91 94 90 84 47 30 24 17 14 12 12 9 8 8 8 8 10 11 14 14 20 30 44 63 80 94
74 88 83 83 63 66 78 76 67 76 68 58 66 54 87 96 90 96 96 89 88 71 34 27 24 19 20 17 17 10 9 8 7 8 7 7 9 11 13 16 17 16 16 19
80 79 73 77 74 81 61 61 64 72 71 69 63 76 86 88 98 93 85 83 87 45 25 25 24 24 25 26 24 16 14 11 9 7 6 7 8 10 11 11 13 13 13 11
69 81 86 82 80 68 52 63 80 87 73 72 81 96 100 100 97 100 96 92 70 24 19 21 24 25 27 30 28 23 16 14 11 10 8 7 8 10 10 9 12 11 9 8
71 78 78 91 93 91 62 67 63 60 84 82 84 90 97 90 98 94 96 91 38 18 18 21 28 29 31 29 26 21 18 15 14 14 11 10 10 11 13 17 13 12 12 10
88 90 76 85 88 79 56 66 58 78 69 84 81 90 96 92 83 74 87 66 21 17 19 26 30 31 28 29 32 18 16 14 21 19 13 14 12 11 11 14 13 15 14 10
80 84 95 79 93 87 64 70 71 67 76 74 83 85 92 82 80 80 82 37 18 16 22 32 29 30 28 29 35 20 16 24 20 14 11 15 18 15 11 10 13 12 11 13
81 74 86 73 75 63 61 59 57 64 64 72 73 78 80 80 80 80 65 24 17 20 24 33 33 32 40 39 35 20 23 30 20 13 10 10 13 14 12 10 11 15 17 14
80 71 85 72 70 73 59 65 68 67 66 63 67 70 75 75 77 74 44 20 18 24 26 31 32 36 32 38 41 29 28 29 20 16 15 15 15 19 16 15 16 17 35 33
85 83 86 89 82 72 64 64 61 69 70 69 71 72 70 75 75 57 33 18 18 23 29 29 31 31 29 31 42 39 34 31 22 18 15 17 19 20 22 19 26 38 50 65
87 90 93 89 70 66 63 52 65 70 71 71 72 78 78 74 72 56 25 18 19 27 33 35 32 26 25 34 39 38 35 25 18 16 18 20 22 23 25 28 28 33 55 73

GFSCGP_850_rhum_135.txt.gz
RH
26 21 24 25 25 24 24 26 27 25 22 26 26 24 33 60 61 62 64 66 67 59 55 50 46 43 40 39 37 35 34 32 31 29 28 26 26 26 26 25 25 26 26 26
27 32 26 25 26 26 30 32 32 29 27 28 24 24 44 55 60 64 66 68 69 60 54 49 46 44 42 41 40 39 39 39 40 41 42 42 38 33 33 33 32 32 34 32
40 31 27 26 29 31 33 33 34 31 27 21 22 21 42 56 61 67 72 74 70 68 61 54 51 48 46 45 46 47 47 50 52 54 54 55 56 54 49 47 46 44 43 44
34 29 26 28 29 29 38 30 30 33 26 27 23 27 24 49 54 58 65 71 74 68 62 58 55 54 55 55 57 59 60 63 66 68 69 70 71 70 69 66 62 62 62 59
35 34 38 40 36 31 33 30 27 24 25 28 26 26 31 59 45 48 58 68 73 67 64 62 62 61 64 67 69 68 69 72 75 74 74 82 89 93 94 86 80 69 71 78
36 29 26 26 27 28 25 24 30 35 30 36 27 26 21 38 36 53 59 70 75 70 67 62 64 66 68 70 69 70 74 77 74 74 76 83 88 97 100 100 100 100 98 94
46 42 27 25 31 24 25 31 41 40 41 36 31 31 23 31 52 52 55 71 77 73 68 66 67 67 68 71 73 76 81 77 78 79 82 87 93 97 98 99 98 99 99 99
48 36 32 26 36 40 32 33 39 45 41 30 37 36 26 50 60 69 72 77 79 75 69 67 70 73 75 77 80 83 81 80 81 82 86 91 93 98 100 99 99 100 100 99
37 32 25 24 24 25 34 33 31 34 43 45 29 30 43 65 65 70 72 81 85 77 71 71 75 79 79 81 84 88 85 82 82 83 87 92 96 98 100 99 97 98 98 96
37 37 31 25 23 27 31 28 41 46 50 46 33 34 41 64 56 67 72 79 90 78 74 76 80 82 68 60 80 82 82 83 83 89 90 94 97 94 96 96 96 96 96 96
35 35 36 27 30 30 32 36 41 40 41 44 48 60 75 68 58 66 71 83 87 79 75 78 83 74 43 27 22 29 43 73 85 90 91 94 95 96 96 96 96 96 96 96
36 48 43 34 34 35 31 34 38 47 41 42 48 58 62 69 77 72 75 81 84 79 76 80 78 51 22 12 11 13 16 28 81 90 94 95 97 96 96 96 96 96 96 96
42 43 48 42 37 38 36 37 42 53 54 44 58 63 75 79 72 74 74 81 88 82 82 79 57 28 12 9 9 10 10 12 16 62 89 97 97 96 96 96 96 96 96 96
41 47 62 46 42 45 49 48 47 43 52 40 52 56 50 54 59 67 77 83 90 86 82 64 33 17 10 7 7 8 9 10 10 11 15 33 59 85 94 96 96 96 97 95
50 46 64 50 44 43 44 46 52 64 43 55 51 53 51 51 55 62 77 93 96 86 80 44 24 14 9 7 6 7 9 8 8 8 11 14 14 14 18 36 75 92 95 98
54 66 67 70 47 48 59 56 50 65 58 65 65 58 42 42 64 78 87 94 94 88 70 34 22 14 11 10 9 7 9 7 8 7 8 11 12 10 10 11 12 13 18 33
65 84 86 73 55 56 69 62 65 54 50 48 50 37 47 62 73 84 94 94 91 84 55 30 21 15 16 15 14 11 10 8 7 8 10 9 10 10 9 9 8 10 11 9
88 89 91 75 64 75 60 50 48 53 48 51 46 46 65 74 93 92 95 88 86 76 38 23 20 18 22 21 19 15 13 9 8 9 10 12 10 9 10 8 9 9 9 11
67 72 73 71 67 56 44 50 64 72 54 52 55 69 93 100 96 100 94 83 76 76 23 18 20 22 23 27 24 19 15 12 11 10 10 10 11 12 12 9 9 10 8 8
64 67 68 83 87 78 49 56 64 59 75 60 70 77 90 88 86 79 89 85 88 30 16 16 21 22 26 25 24 20 15 13 14 14 13 11 11 11 11 13 11 11 8 8
84 86 83 73 76 63 47 63 61 69 60 73 79 81 88 83 76 74 86 90 60 17 16 21 26 27 32 28 24 15 12 12 20 16 17 12 9 10 11 10 11 13 12 9
68 78 77 65 90 79 61 67 60 61 64 64 76 78 85 82 80 77 88 85 36 15 20 24 26 30 31 34 33 18 14 17 21 18 15 12 10 9 11 11 12 11 11 11
66 61 68 62 61 58 62 51 48 52 57 63 65 67 74 78 78 77 87 65 24 18 19 28 32 31 32 32 33 19 18 22 21 17 13 12 10 9 10 10 12 15 12 11
73 67 69 66 69 62 54 55 55 58 61 61 61 62 67 70 76 76 80 48 24 21 21 27 42 38 41 43 31 23 21 24 21 16 13 11 9 11 11 11 14 17 23 25
76 75 72 76 76 69 58 55 54 56 63 66 66 64 66 72 74 72 73 46 22 20 26 29 32 41 47 48 36 26 23 28 22 17 14 13 13 13 13 15 22 35 63 86
84 88 84 74 65 60 64 54 51 67 65 68 70 69 74 74 71 73 71 45 19 21 24 30 35 38 39 47 36 27 24 25 21 17 17 18 20 22 22 23 23 21 25 35

GFSCGP_850_rhum_138.txt.gz
RH
22 23 20 15 16 16 16 18 17 14 15 21 19 17 15 32 34 37 38 41 45 50 56 60 64 61 52 47 41 40 38 37 35 35 34 35 40 40 42 35 34 34 33 32
26 25 19 19 18 19 20 20 19 18 18 23 19 18 15 30 29 33 36 41 45 50 52 59 63 65 58 52 44 42 44 46 48 54 56 67 71 71 66 68 76 58 50 45
30 26 21 20 21 22 21 21 20 23 20 19 19 17 15 26 34 39 44 45 52 54 54 58 62 64 59 53 50 48 52 60 64 60 67 70 73 78 79 83 89 90 86 80
34 30 32 28 22 20 22 20 22 23 25 21 17 20 14 21 27 35 38 47 49 55 58 60 64 67 70 66 66 62 66 71 76 70 77 94 93 89 90 92 95 98 98 94
29 28 29 30 25 24 26 24 24 22 22 24 20 23 15 21 19 19 30 40 50 59 62 64 69 72 74 76 75 71 72 75 71 74 91 99 100 100 100 100 100 100 99 100
31 26 22 20 23 24 19 22 24 25 24 29 18 20 15 17 16 20 25 38 50 58 62 66 71 73 74 78 77 73 72 72 72 75 88 98 100 100 100 100 100 100 100 100
38 35 23 21 24 22 22 28 32 30 31 25 21 21 16 14 22 27 30 39 53 63 65 66 67 70 78 83 81 79 80 81 80 85 93 99 100 100 100 100 100 100 100 100
44 42 31 26 25 28 30 28 32 31 22 20 24 25 16 27 34 42 46 47 58 63 67 68 73 77 76 80 81 82 84 83 77 88 95 99 99 100 100 100 100 100 100 100
30 26 24 24 26 28 30 32 24 32 25 32 19 14 13 33 33 39 45 55 58 64 67 72 77 80 74 65 58 43 59 62 67 89 92 98 99 99 100 100 100 100 100 100
26 33 23 23 21 24 25 21 34 30 40 33 20 19 28 46 29 33 43 48 55 69 75 80 85 78 62 34 30 17 16 25 59 81 85 93 95 96 96 97 100 99 96 98
24 28 32 24 26 24 28 29 26 29 28 34 36 47 57 86 35 37 35 46 61 72 87 70 74 68 38 16 10 22 6 8 30 72 83 89 96 97 97 96 95 98 100 96
29 31 34 27 26 25 23 23 26 41 34 31 33 57 35 40 52 42 33 45 60 80 89 81 72 55 19 13 9 10 7 6 9 25 60 86 95 96 96 96 96 96 96 96
32 32 39 36 33 28 28 25 26 31 37 41 60 61 40 47 44 38 40 46 62 76 81 83 67 41 13 7 10 7 6 6 8 9 10 15 29 68 96 97 97 96 96 96
36 36 60 36 33 31 39 33 30 35 49 40 49 70 46 33 28 26 35 49 59 72 83 79 68 26 11 9 8 6 6 6 8 8 8 9 11 16 20 45 72 91 96 96
38 48 75 41 33 35 34 33 36 50 36 49 58 46 38 32 31 32 38 50 64 77 83 76 68 24 12 12 8 7 7 6 7 6 7 8 10 12 12 13 14 17 28 43
45 52 64 75 35 36 51 42 37 52 46 54 56 44 28 27 39 42 50 62 69 82 79 75 54 55 45 33 8 7 7 7 9 6 7 8 8 7 8 10 9 8 9 11
53 86 73 60 44 48 64 74 65 46 39 40 43 30 23 32 38 50 60 70 76 80 76 60 52 56 47 22 11 9 8 7 8 8 9 8 8 7 6 7 8 8 9 8
78 96 62 71 59 82 65 35 34 44 34 27 29 29 28 34 62 80 77 77 80 79 70 58 56 61 34 29 13 12 11 11 9 8 11 13 9 7 6 6 6 8 9 8
61 62 70 75 61 43 38 34 41 47 39 29 31 30 46 74 73 80 87 83 84 80 75 54 33 25 41 27 17 15 14 13 11 9 10 14 13 9 8 6 7 11 17 11
55 58 66 63 66 59 39 37 44 46 63 34 40 44 57 67 66 72 87 88 95 78 54 19 19 29 22 22 18 17 14 13 11 10 11 13 13 11 10 9 9 12 16 22
68 71 75 64 77 53 32 40 48 62 48 46 50 52 62 68 70 83 97 96 82 73 23 17 18 21 24 21 19 18 15 13 12 11 10 10 13 13 12 11 14 28 32 42
60 70 72 63 90 67 31 48 50 38 52 54 62 72 75 74 76 81 94 90 84 41 19 20 21 24 25 25 22 18 16 15 15 14 12 12 15 18 17 15 19 53 90 97
54 45 51 47 45 44 44 36 45 52 46 63 63 75 69 75 79 85 94 91 70 27 19 24 26 25 28 30 27 22 18 17 18 16 11 12 13 16 43 88 99 100 100 100
45 39 54 49 42 40 46 44 53 58 57 66 66 72 68 66 75 81 94 85 76 38 22 25 29 28 25 28 30 27 20 17 17 13 11 12 16 32 77 98 100 100 100 100
48 48 49 49 58 46 52 52 51 60 72 70 61 63 64 72 75 76 87 85 76 52 32 33 32 32 34 31 28 27 22 20 17 14 12 15 16 33 37 39 86 99 80 88
55 72 66 65 42 48 49 54 52 68 79 78 71 68 73 79 77 84 86 79 71 66 55 63 73 55 47 41 29 28 25 26 22 17 21 32 39 51 89 95 71 16 31 53

GFSCGP_850_rhum_141.txt.gz
RH
22 20 19 13 12 12 11 12 11 9 9 16 15 13 11 20 21 22 25 29 31 36 43 49 57 59 60 64 67 55 49 47 40 54 54 60 63 63 65 69 74 80 85 85
24 23 15 16 16 14 12 12 12 10 11 15 14 14 12 16 19 20 23 26 29 36 39 47 52 58 63 65 70 62 63 61 67 68 58 73 74 72 72 74 77 84 87 94
26 19 16 16 15 16 14 15 14 14 13 14 15 16 13 12 19 22 24 25 30 34 39 45 51 57 61 66 72 71 72 75 78 74 76 78 78 74 73 76 83 82 93 99
26 20 23 26 23 15 17 11 15 16 18 19 14 18 11 14 21 22 24 30 32 38 45 46 52 56 60 68 74 78 81 78 80 89 87 91 84 82 85 85 89 97 100 100
30 29 27 25 20 14 17 20 20 19 20 19 16 17 12 13 16 17 21 27 32 39 44 48 54 58 59 67 73 81 82 80 86 88 94 93 93 93 94 98 99 100 100 100
30 21 19 17 16 19 18 20 19 18 19 26 17 16 14 13 15 14 15 23 32 41 47 51 57 59 60 68 77 82 82 80 84 85 96 98 100 100 100 100 100 100 99 99
36 33 24 18 20 19 19 21 29 32 31 29 15 17 14 12 14 16 18 23 35 43 47 51 52 56 63 70 77 79 78 81 77 88 98 99 100 100 100 100 100 100 99 99
35 41 26 21 19 21 21 21 30 28 25 18 17 19 14 16 16 24 26 25 36 45 51 53 58 63 62 66 70 71 72 75 77 90 99 99 98 99 100 100 100 100 99 98
26 27 21 21 18 17 26 33 21 29 26 30 20 14 11 22 22 23 28 33 37 43 47 52 61 67 63 59 62 51 45 50 80 90 98 98 86 88 97 100 100 98 97 100
23 33 23 21 22 23 26 18 31 27 35 32 18 16 24 33 25 24 26 30 35 42 51 58 68 74 64 59 63 36 20 8 46 61 97 90 83 89 97 96 97 99 97 99
23 24 28 22 24 24 30 28 24 22 25 33 34 39 39 66 26 26 23 22 33 43 60 78 83 78 61 25 20 28 16 5 8 16 61 39 66 89 93 95 96 96 96 99
25 29 38 28 19 17 19 22 23 41 34 25 28 52 21 26 34 32 26 26 29 51 67 88 68 64 46 17 23 13 5 6 6 8 11 13 14 30 85 94 93 95 95 96
28 32 37 33 30 23 24 22 21 23 29 39 56 62 31 30 29 27 24 28 34 56 67 80 78 60 37 10 16 7 5 6 6 7 8 10 11 12 21 29 64 93 98 96
30 32 41 36 43 35 34 25 23 27 46 36 41 59 34 26 24 22 22 22 34 53 62 68 79 82 44 16 8 4 5 6 6 6 8 8 8 12 22 35 63 84 64 93
34 37 70 40 32 33 34 31 28 38 30 40 47 33 28 26 25 23 26 30 35 50 63 71 70 72 71 33 9 7 6 6 6 6 7 7 7 9 13 23 29 77 42 38
38 54 75 99 34 32 37 32 28 35 34 37 39 40 26 22 24 27 30 38 40 54 65 71 72 65 57 58 14 10 8 7 7 7 8 7 7 8 10 12 23 18 36 22
53 88 79 80 40 37 51 60 46 36 30 31 40 28 20 22 22 25 34 47 52 57 68 70 64 49 51 52 28 33 9 7 10 10 9 8 8 9 10 12 16 21 17 17
63 77 54 57 55 73 42 31 30 39 35 24 22 20 19 24 38 59 59 57 60 64 70 66 53 52 58 46 48 44 50 20 12 18 11 10 8 10 14 15 19 30 22 19
56 49 52 67 57 38 29 27 33 35 35 23 24 22 22 48 48 48 68 67 68 72 71 61 60 62 51 50 52 50 49 53 42 31 27 24 10 12 17 24 29 41 50 46
48 55 65 52 58 51 27 29 27 30 61 26 23 24 28 44 44 65 76 75 81 82 73 68 71 64 64 58 51 38 40 21 12 17 37 21 26 17 16 53 56 41 78 85
64 66 69 53 51 36 22 28 34 57 42 30 29 32 41 50 68 95 83 84 91 84 72 62 37 49 24 20 16 14 13 11 10 10 12 12 13 17 22 73 99 96 98 94
51 57 57 49 50 46 22 37 49 33 41 37 39 49 58 62 72 75 83 86 89 79 73 32 22 23 21 21 17 14 13 11 11 10 10 11 14 17 30 58 84 93 100 99
48 36 38 36 36 29 29 32 39 40 36 41 41 53 65 58 68 72 90 98 99 79 52 23 18 20 24 23 19 16 14 12 11 10 10 10 18 35 73 98 100 100 100 100
31 24 42 38 36 31 38 37 34 35 42 43 49 54 81 55 64 72 94 92 89 89 66 26 22 24 25 27 22 18 16 13 13 12 12 17 46 83 93 100 98 100 100 100
38 36 39 40 52 32 32 36 40 38 45 56 59 63 72 78 71 72 87 87 80 77 76 70 44 31 24 27 23 19 17 14 15 15 19 35 61 68 33 39 88 96 42 64
31 50 62 59 37 44 41 53 55 56 58 58 67 74 70 79 87 89 93 81 75 71 71 67 65 70 47 35 24 21 19 16 20 35 57 90 94 96 99 97 41 18 20 15

GFSCGP_850_rhum_144.txt.gz
RH
22 25 22 16 13 10 12 12 12 9 10 12 13 13 10 19 18 19 22 24 28 32 40 47 55 57 57 52 45 39 35 34 32 31 35 35 39 42 44 50 66 74 79 82
26 28 18 13 15 14 14 13 12 9 8 10 13 13 10 14 19 19 21 24 27 34 39 45 50 58 63 64 58 48 47 45 41 42 50 55 54 55 64 71 71 74 77 82
28 21 16 16 17 17 15 15 13 12 10 12 15 16 14 11 17 18 19 22 25 31 35 43 48 56 61 65 63 54 52 63 63 56 56 55 59 65 71 72 79 83 82 86
26 20 21 22 22 18 23 14 12 12 15 18 11 20 12 16 18 18 20 23 28 34 38 41 47 53 59 63 69 67 71 76 76 64 49 68 77 83 87 91 93 93 97 99
34 26 25 27 24 22 25 16 16 15 19 21 17 18 13 10 20 22 22 26 29 34 38 42 49 54 56 65 73 78 78 78 76 44 60 62 69 76 81 91 99 98 98 99
28 22 23 25 21 19 15 19 20 19 21 30 18 17 16 14 16 18 19 25 30 38 44 46 52 55 56 65 76 80 77 79 74 34 64 61 69 82 84 96 100 100 97 96
33 28 24 20 22 18 19 23 32 35 34 34 16 17 15 13 14 16 19 22 31 38 41 46 49 50 58 67 75 70 69 74 65 34 60 52 54 78 83 98 100 100 96 95
48 51 31 24 26 22 22 22 34 31 33 25 15 20 20 15 15 16 16 22 32 39 43 47 49 57 59 63 65 63 56 60 37 43 53 37 40 75 82 92 99 100 97 97
29 34 20 22 22 20 21 28 19 30 30 37 27 18 20 19 23 22 23 24 33 38 44 48 54 64 62 59 63 48 42 30 23 51 40 18 39 62 82 88 96 96 95 97
31 40 20 22 21 21 21 19 40 38 43 41 24 17 53 32 27 26 26 29 30 33 40 47 57 67 63 62 65 38 38 14 12 22 23 9 17 44 78 85 94 96 96 95
27 32 27 24 28 27 28 34 28 27 31 36 39 62 61 51 30 30 26 21 24 31 43 54 65 72 69 60 37 21 24 6 6 7 8 7 9 13 38 70 93 95 96 95
29 37 43 27 18 17 21 30 29 52 34 32 35 52 30 44 41 32 28 24 25 37 54 64 70 68 62 46 26 26 8 5 5 6 6 6 7 12 17 23 51 74 90 94
33 43 52 38 28 22 24 24 24 29 38 46 59 63 30 32 30 26 25 24 31 43 66 77 72 66 60 43 16 19 5 5 5 5 6 6 7 12 18 26 53 31 37 53
36 36 51 48 36 39 38 27 24 28 49 41 48 58 42 28 23 20 21 24 29 48 64 72 75 74 60 37 12 7 5 5 5 5 5 6 7 13 18 23 35 24 19 23
40 48 78 45 42 40 42 43 38 36 30 44 51 40 32 30 28 24 25 26 29 47 60 65 73 79 82 53 23 12 7 6 5 5 6 6 7 12 16 24 24 22 13 14
40 58 79 96 37 34 44 40 41 43 48 45 45 42 26 24 23 24 26 30 35 38 56 66 70 73 75 70 58 35 13 7 6 6 6 7 7 10 12 23 36 22 14 11
79 95 75 66 42 45 85 57 50 40 31 32 39 31 25 26 23 34 34 34 43 44 56 66 68 67 57 58 52 55 12 8 10 8 8 8 8 9 10 23 41 32 16 10
88 97 88 70 55 80 51 29 29 38 36 31 28 25 21 22 40 51 49 49 50 54 59 66 67 58 54 54 54 52 32 12 18 16 14 11 10 9 12 17 26 47 22 11
70 75 80 71 60 49 34 28 33 38 39 25 24 23 21 44 39 46 58 60 61 62 64 68 62 52 56 45 49 46 49 51 28 34 40 22 14 15 17 22 21 38 54 45
64 64 74 68 66 63 36 21 23 23 60 28 27 28 26 39 51 81 70 68 70 70 70 68 58 60 50 51 49 46 46 37 23 29 26 27 26 22 26 34 36 46 73 81
92 95 92 77 74 47 24 22 28 55 49 28 26 27 35 52 67 78 75 74 73 75 73 67 62 62 57 45 30 30 23 15 11 13 15 15 16 19 28 41 87 93 90 95
55 60 68 58 62 61 20 24 42 41 38 36 36 38 46 52 69 68 73 70 73 77 76 71 64 61 51 29 21 16 12 10 10 10 11 12 15 24 33 54 69 91 100 94
65 45 53 40 46 32 30 33 34 37 37 37 38 44 56 53 61 64 70 78 79 75 77 74 63 41 29 18 18 13 11 11 10 9 11 13 22 35 62 90 100 99 94 89
37 32 52 50 40 32 39 38 40 37 35 38 40 45 62 57 55 63 70 82 87 85 80 73 50 27 19 19 18 15 12 12 11 11 12 18 34 70 99 58 49 64 79 98
52 39 44 48 53 32 30 37 42 40 43 42 46 52 59 70 66 64 72 84 86 85 91 80 40 22 20 21 20 17 16 14 13 13 17 28 39 36 54 52 31 16 17 21
36 54 61 67 42 43 43 44 50 50 50 49 50 60 65 68 85 84 88 88 84 82 83 86 70 45 30 27 24 20 19 17 14 16 25 50 55 79 61 43 35 47 32 19

GFSCGP_850_rhum_147.txt.gz
RH
26 35 42 34 27 22 19 14 15 12 13 14 16 18 27 22 21 27 29 31 36 38 40 38 39 46 42 40 39 35 30 26 25 27 29 31 34 40 43 45 49 50 53 58
38 40 30 25 21 19 17 17 19 16 13 16 19 17 15 24 23 26 27 30 35 39 40 41 44 48 42 38 40 36 38 34 33 38 39 37 43 43 52 53 53 55 58 61
40 33 25 24 24 20 21 21 20 19 14 14 18 21 19 17 22 21 24 29 32 35 38 42 46 50 50 46 44 42 47 44 41 44 38 35 30 31 45 52 58 62 64 70
36 26 26 21 23 21 24 18 17 18 18 25 16 30 19 17 24 23 26 31 34 36 37 42 46 51 50 48 47 50 58 53 52 53 28 31 32 34 44 58 67 68 71 82
41 33 34 33 26 25 30 26 20 20 23 25 23 27 23 20 28 28 35 34 35 37 40 43 47 51 53 58 59 58 68 64 58 59 23 19 23 25 40 56 71 72 81 88
40 28 30 30 26 26 25 21 21 24 28 44 29 28 26 18 21 29 31 33 33 35 38 44 49 52 57 61 61 63 67 66 58 49 17 16 18 20 32 46 74 81 90 85
54 48 37 27 27 21 21 30 48 49 47 48 23 26 22 18 22 27 32 35 34 39 42 44 45 54 57 60 60 61 56 55 53 26 15 12 13 16 23 49 82 92 95 88
74 76 48 30 27 30 28 33 56 46 55 44 25 30 28 24 24 25 29 35 38 41 42 45 50 54 56 57 54 52 46 44 38 19 15 13 11 11 21 52 81 95 99 94
65 54 30 29 27 24 36 36 28 38 38 48 41 29 26 28 30 29 40 39 40 42 44 47 50 52 58 57 50 50 40 42 27 12 12 8 7 6 16 41 88 96 98 96
61 70 28 24 28 27 26 24 39 52 53 57 41 32 58 44 39 37 36 40 39 41 45 48 51 54 57 53 50 50 35 39 16 7 8 7 6 7 9 26 70 89 90 94
40 56 43 28 32 34 35 35 35 45 49 57 66 70 58 52 43 42 36 29 33 40 45 49 52 54 54 52 52 43 29 24 6 6 6 6 5 7 10 17 22 35 60 83
40 53 60 38 26 23 27 34 42 70 44 53 58 71 39 48 47 32 30 26 28 35 45 50 51 57 58 57 55 33 30 10 5 6 5 4 5 6 8 15 18 16 22 25
39 62 64 43 37 24 27 26 35 45 49 48 74 77 48 48 39 30 32 31 36 41 47 50 54 62 66 62 54 28 24 5 5 5 5 4 4 7 8 14 12 11 13 11
40 46 56 57 48 45 38 32 31 43 69 52 56 63 46 40 36 27 29 26 33 43 54 59 68 69 60 58 47 14 9 5 5 5 5 4 4 6 8 10 11 8 10 9
47 53 72 55 42 40 46 46 47 54 50 54 57 47 43 36 31 27 28 34 50 60 64 65 62 60 57 57 42 18 10 6 5 5 5 5 5 6 8 9 10 7 7 8
46 71 76 79 48 45 50 52 48 55 52 54 58 58 40 32 26 28 28 38 51 54 58 61 63 66 64 62 44 31 16 7 6 6 6 5 6 6 7 10 9 5 5 6
83 90 87 77 51 60 82 66 59 52 47 46 57 46 36 31 33 35 31 32 38 49 57 61 65 67 66 62 55 32 22 10 11 9 7 6 6 6 9 12 9 5 5 6
91 95 97 92 60 83 57 51 49 50 42 37 34 32 31 34 48 48 44 43 44 46 55 62 66 67 66 60 55 36 28 14 25 15 11 8 6 7 13 14 11 12 10 8
80 88 99 91 91 65 50 42 49 59 55 41 40 32 44 47 50 63 54 47 50 52 54 58 64 65 59 53 46 45 35 27 28 24 22 14 10 10 14 15 21 28 35 32
84 78 79 98 96 93 61 34 27 37 57 37 31 35 53 43 76 90 59 53 56 60 60 63 66 62 52 51 48 42 46 46 38 28 21 21 17 20 20 26 37 51 58 69
95 94 95 96 89 88 43 26 26 58 61 33 31 34 44 66 59 58 63 63 64 64 65 67 66 58 53 46 45 41 40 40 32 20 21 19 20 24 30 43 57 73 84 88
88 97 98 95 97 92 34 27 47 53 40 32 34 37 42 52 63 60 60 61 64 65 70 69 65 60 56 50 48 40 36 30 19 15 15 14 16 24 34 51 82 89 96 100
86 70 82 73 76 49 38 43 40 40 39 38 37 40 40 43 50 53 58 61 65 68 70 70 67 64 61 60 51 29 26 17 12 11 12 13 21 37 40 53 62 76 87 88
54 43 70 59 48 40 37 38 42 47 42 39 40 44 50 49 49 49 56 64 69 73 73 73 73 68 65 60 36 24 16 13 11 11 12 18 30 37 41 56 71 69 62 52
68 52 64 65 60 40 37 44 45 45 55 44 46 45 50 55 55 58 56 64 68 73 73 75 76 73 64 40 21 19 16 14 13 13 18 30 36 48 50 37 23 39 17 25
51 59 80 80 49 45 49 50 54 50 48 47 49 52 54 60 59 67 68 68 73 77 77 77 79 72 55 30 20 20 19 17 15 14 22 31 41 34 37 16 19 24 20 12